EW6171 Weather Reports


time (UTC)temp
F
wind
direction
speed
knots
gust
knots
rain 1hr
in
rain 24hr
in
rain mn
in
humidity
%
barometer
mb
20260508202430 0 10 4.3 7.8 0.00 0.00 0.00 1006.9
20260508201916 0 42 5.2 8.7 0.00 0.00 0.00 1006.9
20260508201408 0 53 6.1 8.7 0.00 0.00 0.00 1006.9
20260508200900 0 54 5.2 8.7 0.00 0.00 0.00 1006.8
20260508200354 0 65 6.1 9.6 0.00 0.00 0.00 1006.9
20260508200115 0 52 5.2 9.6 0.00 0.00 0.00 1007.0
20260508195335 0 52 6.1 9.6 0.00 0.00 0.00 1007.0
20260508194829 0 10 7.0 9.6 0.00 0.00 0.00 1007.0
20260508194554 0 50 6.1 9.6 0.00 0.00 0.00 1007.2
20260508193808 0 53 5.2 9.6 0.00 0.00 0.00 1007.1
20260508193300 0 59 5.2 7.8 0.00 0.00 0.00 1007.2
20260508192752 0 41 5.2 7.8 0.00 0.00 0.00 1007.3
20260508192249 0 10 6.1 9.6 0.00 0.00 0.00 1006.4
20260508192013 0 63 5.2 9.6 0.00 0.00 0.00 1007.2
20260508191232 0 58 5.2 8.7 0.00 0.00 0.00 1007.4
20260508190714 0 57 5.2 8.7 0.00 0.00 0.00 1007.5
20260508190209 0 47 4.3 7.8 0.00 0.00 0.00 1007.6
20260508185206 0 10 4.3 7.8 0.00 0.00 0.00 1007.6
20260508184701 0 56 4.3 7.8 0.00 0.00 0.00 1007.5
20260508184152 0 10 3.5 7.0 0.00 0.00 0.00 1007.5
20260508183648 0 10 2.6 7.0 0.00 0.00 0.00 1007.5
20260508183140 0 10 2.6 5.2 0.00 0.00 0.00 1007.6
20260508182632 0 10 3.5 7.8 0.00 0.00 0.00 1007.6
20260508182125 0 20 3.5 7.8 0.00 0.00 0.00 1007.7
20260508181621 0 15 3.5 7.0 0.00 0.00 0.00 1007.9
20260508181115 0 355 4.3 9.6 0.00 0.00 0.00 1008.0
20260508180842 0 28 4.3 9.6 0.00 0.00 0.00 1007.9
20260508180109 0 35 3.5 7.0 0.00 0.00 0.00 1007.9
20260508175608 0 27 3.5 9.6 0.00 0.00 0.00 1007.9
20260508175105 0 34 4.3 9.6 0.00 0.00 0.00 1008.1
20260508174834 0 15 5.2 9.6 0.00 0.00 0.00 1008.2
20260508173547 0 10 6.1 9.6 0.00 0.00 0.00 1008.1
20260508172535 0 10 2.6 8.7 0.00 0.00 0.00 1008.0
20260508172031 0 53 2.6 5.2 0.00 0.00 0.00 1008.0
20260508171520 0 58 1.7 5.2 0.00 0.00 0.00 1008.1
20260508171016 0 35 1.7 4.3 0.00 0.00 0.00 1008.1
20260508170736 0 10 2.6 6.1 0.00 0.00 0.00 1008.1
20260508170002 0 46 1.7 6.1 0.00 0.00 0.00 1008.2
20260508165458 0 83 2.6 7.0 0.00 0.00 0.00 1008.2
20260508165219 0 67 3.5 7.8 0.00 0.00 0.00 1008.1
20260508164442 0 95 2.6 7.8 0.00 0.00 0.00 1008.2
20260508163933 0 82 2.6 7.0 0.00 0.00 0.00 1008.3
20260508163422 0 94 2.6 5.2 0.00 0.00 0.00 1008.5
20260508162911 0 80 1.7 5.2 0.00 0.00 0.00 1008.5
20260508161852 0 108 1.7 6.1 0.00 0.00 0.00 1008.4
20260508161341 0 80 0.9 6.1 0.00 0.00 0.00 1008.5
20260508160837 0 123 0.9 3.5 0.00 0.00 0.00 1008.6
20260508160327 0 111 0.9 3.5 0.00 0.00 0.00 1008.6
20260508155818 0 82 1.7 6.1 0.00 0.00 0.00 1008.6
20260508155308 0 96 2.6 6.1 0.00 0.00 0.00 1008.5
20260508154757 0 98 2.6 3.5 0.00 0.00 0.00 1008.7
20260508154247 0 114 1.7 3.5 0.00 0.00 0.00 1008.8
20260508154007 0 101 0.9 3.5 0.00 0.00 0.00 1009.0
20260508153227 0 84 0.9 4.3 0.00 0.00 0.00 1009.0
20260508152717 0 92 1.7 4.3 0.00 0.00 0.00 1009.0
20260508152438 0 104 1.7 6.1 0.00 0.00 0.00 1009.1
20260508151929 0 88 1.7 6.1 0.00 0.00 0.00 1009.1
20260508151147 0 95 1.7 3.5 0.00 0.00 0.00 1009.1
20260508150637 0 108 0.9 3.5 0.00 0.00 0.00 1009.3
20260508150128 0 115 1.7 6.1 0.00 0.00 0.00 1009.3
20260508145617 0 138 2.6 6.1 0.00 0.00 0.00 1009.4
20260508145107 0 82 2.6 7.0 0.00 0.00 0.00 1009.4
20260508144557 0 102 3.5 7.0 0.00 0.00 0.00 1009.3
20260508144048 0 108 3.5 7.0 0.00 0.00 0.00 1009.2
20260508143809 0 67 1.7 7.0 0.00 0.00 0.00 1009.3
20260508143027 0 84 1.7 3.5 0.00 0.00 0.00 1009.5
20260508142517 0 97 0.9 3.5 0.00 0.00 0.00 1009.7
20260508142008 0 77 1.7 3.5 0.00 0.00 0.00 1009.8
20260508141458 0 68 0.9 3.5 0.00 0.00 0.00 1009.7
20260508140947 0 35 1.7 5.2 0.00 0.00 0.00 1009.6
20260508140437 0 52 3.5 7.0 0.00 0.00 0.00 1009.4
20260508135928 0 26 3.5 7.8 0.00 0.00 0.00 1009.3
20260508135650 0 25 2.6 6.1 0.00 0.00 0.00 1009.4
20260508134908 0 28 1.7 6.1 0.00 0.00 0.00 1009.5
20260508134357 0 10 2.6 4.3 0.00 0.00 0.00 1009.7
20260508133847 0 61 3.5 7.8 0.00 0.00 0.00 1009.5
20260508133337 0 58 3.5 7.8 0.00 0.00 0.00 1009.5
20260508132827 0 54 3.5 6.1 0.00 0.00 0.00 1009.6
20260508132548 0 10 2.6 5.2 0.00 0.00 0.00 1009.8
20260508131807 0 67 3.5 7.8 0.00 0.00 0.00 1010.0
20260508131257 0 50 4.3 9.6 0.00 0.00 0.00 1010.1
20260508130748 0 21 3.5 9.6 0.00 0.00 0.00 1010.1
20260508130510 0 10 4.3 9.6 0.00 0.00 0.00 1010.4
20260508125952 0 10 5.2 9.6 0.00 0.00 0.00 1010.5
20260508125441 0 10 7.0 10.4 0.00 0.00 0.00 1010.5
20260508124658 0 10 7.8 10.4 0.00 0.00 0.00 1010.3
20260508124145 0 348 7.8 10.4 0.00 0.00 0.00 1010.3
20260508123633 0 10 7.0 10.4 0.00 0.00 0.00 1010.1
20260508123354 0 10 6.1 9.6 0.00 0.00 0.00 1010.0
20260508122613 0 10 6.1 9.6 0.00 0.00 0.00 1009.8
20260508122332 0 10 7.8 10.4 0.00 0.00 0.00 1009.7
20260508121551 0 10 7.8 10.4 0.00 0.00 0.00 1009.7
20260508121312 0 10 8.7 12.2 0.00 0.00 0.00 1009.7
20260508120531 0 10 7.8 12.2 0.00 0.00 0.00 1009.8
20260508120022 0 326 7.0 10.4 0.00 0.00 0.00 1009.8
20260508115511 0 10 6.1 8.7 0.00 0.00 0.00 1009.9
20260508115001 0 10 6.1 8.7 0.00 0.00 0.00 1009.9
20260508114452 0 327 6.1 8.7 0.00 0.00 0.00 1009.9
20260508113941 0 328 6.1 7.8 0.00 0.00 0.00 1009.8
20260508113432 0 10 6.1 7.8 0.00 0.00 0.00 1009.8
20260508112920 0 320 4.3 7.0 0.00 0.00 0.00 1009.7
20260508112407 0 324 2.6 4.3 0.00 0.00 0.00 1009.4
20260508111857 0 10 0.9 3.5 0.00 0.00 0.00 1009.0
20260508111347 0 352 0.9 1.7 0.00 0.00 0.00 1008.9
20260508110838 0 19 0.9 3.5 0.00 0.00 0.00 1008.7
20260508110335 0 27 1.7 3.5 0.00 0.00 0.00 1008.6
20260508105825 0 44 1.7 4.3 0.00 0.00 0.00 1008.6
20260508105316 0 61 2.6 4.3 0.00 0.00 0.00 1008.6
20260508104805 0 50 2.6 3.5 0.00 0.00 0.00 1008.8
20260508104246 0 62 2.6 3.5 0.00 0.00 0.00 1008.9
20260508103736 0 58 1.7 4.3 0.00 0.00 0.00 1008.9
20260508103225 0 54 1.7 4.3 0.00 0.00 0.00 1009.0
20260508102715 0 45 1.7 5.2 0.00 0.00 0.00 1009.2
20260508102437 0 19 1.7 5.2 0.00 0.00 0.00 1009.2
20260508101656 0 5 0.9 3.5 0.00 0.00 0.00 1009.3
20260508101145 0 52 0.9 3.5 0.00 0.00 0.00 1009.3
20260508100635 0 352 1.7 3.5 0.00 0.00 0.00 1009.6
20260508100125 0 10 0.9 3.5 0.00 0.00 0.00 1009.8
20260508095618 0 311 0.0 2.6 0.00 0.00 0.00 1009.9
20260508095107 0 323 0.9 2.6 0.00 0.00 0.00 1010.0
20260508094600 0 316 0.9 2.6 0.00 0.00 0.00 1010.1
20260508094049 0 316 0.0 1.7 0.00 0.00 0.00 1009.9
20260508093540 0 307 0.0 0.9 0.00 0.00 0.00 1009.8
20260508093300 0 10 0.0 0.0 0.00 0.00 0.00 1009.4
20260508092521 0 42 0.0 0.0 0.00 0.00 0.00 1009.1
20260508092011 0 42 0.0 0.0 0.00 0.00 0.00 1008.9
20260508091505 0 42 0.0 0.0 0.00 0.00 0.00 1008.9
20260508091228 0 42 0.0 0.0 0.00 0.00 0.00 1009.0
20260508090457 0 24 0.0 0.0 0.00 0.00 0.00 1009.3
20260508085953 0 24 0.0 0.0 0.00 0.00 0.00 1009.5
20260508085441 0 24 0.0 0.0 0.00 0.00 0.00 1009.5
20260508084935 0 24 0.0 0.9 0.00 0.00 0.00 1009.5
20260508084430 0 24 0.0 0.9 0.00 0.00 0.00 1009.4
20260508084159 0 15 0.0 0.9 0.00 0.00 0.00 1009.5
20260508083653 0 5 0.0 0.9 0.00 0.00 0.00 1009.8
20260508082919 0 5 0.0 0.9 0.00 0.00 0.00 1009.8
20260508082413 0 15 0.0 1.7 0.00 0.00 0.00 1009.8
20260508081909 0 346 0.9 3.5 0.00 0.00 0.00 1009.9
20260508081402 0 348 0.9 3.5 0.00 0.00 0.00 1009.6
20260508080900 0 338 1.7 3.5 0.00 0.00 0.00 1009.6
20260508080354 0 358 1.7 4.3 0.00 0.00 0.00 1009.5
20260508075851 0 10 1.7 4.3 0.00 0.00 0.00 1009.5
20260508075350 0 15 2.6 5.2 0.00 0.00 0.00 1009.5
20260508074850 0 10 2.6 5.2 0.00 0.00 0.00 1009.6
20260508074334 0 350 2.6 5.2 0.00 0.00 0.00 1009.6
20260508073825 0 352 2.6 4.3 0.00 0.00 0.00 1009.7
20260508073555 0 351 2.6 5.2 0.00 0.00 0.00 1009.9
20260508072826 0 10 2.6 5.2 0.00 0.00 0.00 1009.8
20260508072320 0 10 2.6 7.8 0.00 0.00 0.00 1009.9
20260508071818 0 10 1.7 7.8 0.00 0.00 0.00 1010.0
20260508071312 0 343 2.6 7.8 0.00 0.00 0.00 1010.2
20260508070806 0 10 2.6 7.8 0.00 0.00 0.00 1010.4
20260508070300 0 328 0.9 3.5 0.00 0.00 0.00 1010.5
20260508070028 0 331 0.9 3.5 0.00 0.00 0.00 1010.6
20260508064742 0 334 0.0 2.6 0.00 0.00 0.00 1010.6
20260508064504 0 327 0.0 2.6 0.00 0.00 0.00 1010.5
20260508063221 0 308 0.0 0.9 0.00 0.00 0.00 1010.7
20260508062714 0 295 0.0 0.9 0.00 0.00 0.00 1010.8
20260508062435 0 300 0.0 0.9 0.00 0.00 0.00 1010.7
20260508061658 0 327 0.0 0.9 0.00 0.00 0.00 1010.5
20260508061150 0 1 0.0 0.9 0.00 0.00 0.00 1010.5
20260508060640 0 5 0.0 0.9 0.00 0.00 0.00 1010.5
20260508060136 0 25 0.0 0.9 0.00 0.00 0.00 1010.4
20260508055633 0 75 0.0 0.9 0.00 0.00 0.00 1010.3
20260508055124 0 75 0.0 0.9 0.00 0.00 0.00 1010.4
20260508054103 0 61 0.9 7.0 0.00 0.00 0.00 1010.4
20260508053553 0 87 2.6 7.0 0.00 0.00 0.00 1009.9
20260508053042 0 61 4.3 8.7 0.00 0.00 0.00 1009.6
20260508052532 0 90 4.3 8.7 0.00 0.00 0.00 1009.6
20260508051512 0 112 4.3 9.6 0.00 0.00 0.00 1009.3
20260508051002 0 96 4.3 8.7 0.00 0.00 0.00 1009.3
20260508050452 0 96 6.1 9.6 0.00 0.00 0.00 1009.0
20260508045942 0 90 6.1 9.6 0.00 0.00 0.00 1008.9
20260508045432 0 102 7.8 10.4 0.00 0.00 0.00 1009.1
20260508044921 0 108 7.8 10.4 0.00 0.00 0.00 1009.1
20260508044416 0 112 5.2 10.4 0.00 0.00 0.00 1009.3
20260508043906 0 101 4.3 7.8 0.00 0.00 0.00 1009.8
20260508043357 0 102 6.1 8.7 0.00 0.00 0.00 1009.8
20260508042846 0 100 6.1 8.7 0.00 0.00 0.00 1009.3
20260508042335 0 126 4.3 8.7 0.00 0.00 0.00 1009.5
20260508041825 0 10 4.3 8.7 0.00 0.00 0.00 1010.0
20260508041315 0 10 6.1 8.7 0.00 0.00 0.00 1009.8
20260508040811 0 10 6.1 8.7 0.00 0.00 0.00 1009.6
20260508040532 0 115 3.5 7.8 0.00 0.00 0.00 1009.6
20260508035752 0 117 0.9 3.5 0.00 0.00 0.00 1009.8
20260508035247 0 132 0.9 2.6 0.00 0.00 0.00 1010.3
20260508034743 0 110 0.0 2.6 0.00 0.00 0.00 1010.4
20260508034233 0 69 0.0 0.0 0.00 0.00 0.00 1010.8
20260508033724 0 69 0.0 0.9 0.00 0.00 0.00 1010.6
20260508033443 0 69 0.0 0.9 0.00 0.00 0.00 1010.9
20260508032703 0 314 0.0 0.0 0.00 0.00 0.00 1010.9
20260508032153 0 315 0.0 0.9 0.00 0.00 0.00 1011.2
20260508031643 0 322 0.0 0.9 0.00 0.00 0.00 1011.2
20260508031133 0 319 0.0 0.0 0.00 0.00 0.00 1011.0
20260508030629 0 117 0.0 0.9 0.00 0.00 0.00 1010.9
20260508030117 0 117 0.0 0.9 0.00 0.00 0.00 1010.6
20260508025608 0 121 0.0 0.0 0.00 0.00 0.00 1010.5
20260508025057 0 121 0.0 0.0 0.00 0.00 0.00 1010.8
20260508024547 0 121 0.0 0.0 0.00 0.00 0.00 1010.9
20260508024037 0 121 0.0 0.0 0.00 0.00 0.00 1011.1
20260508023527 0 121 0.0 0.0 0.00 0.00 0.00 1011.4
20260508023017 0 121 0.0 1.7 0.00 0.00 0.00 1011.4
20260508022507 0 75 0.0 2.6 0.00 0.00 0.00 1010.8
20260508022000 0 77 0.0 2.6 0.00 0.00 0.00 1010.5
20260508021459 0 113 0.0 0.9 0.00 0.00 0.00 1010.6
20260508021218 0 125 0.0 3.5 0.00 0.00 0.00 1010.6
20260508020437 0 121 0.9 3.5 0.00 0.00 0.00 1010.6
20260508020200 0 93 0.9 3.5 0.00 0.00 0.00 1010.4
20260508015418 0 77 2.6 3.5 0.00 0.00 0.00 1010.2
20260508014908 0 67 1.7 3.5 0.00 0.00 0.00 1009.9
20260508014407 0 74 0.9 2.6 0.00 0.00 0.00 1010.2
20260508013905 0 77 0.9 3.5 0.00 0.00 0.00 1010.4
20260508013402 0 79 0.9 3.5 0.00 0.00 0.00 1010.4
20260508013132 0 79 0.9 2.6 0.00 0.00 0.00 1010.2
20260508012401 0 78 0.0 2.6 0.00 0.00 0.00 1010.2
20260508011851 0 65 0.0 0.9 0.00 0.00 0.00 1010.4
20260508011342 0 49 0.0 0.9 0.00 0.00 0.00 1010.3
20260508010831 0 59 0.0 1.7 0.00 0.00 0.00 1010.3
20260508010321 0 69 0.9 3.5 0.00 0.00 0.00 1010.1
20260508005812 0 75 0.9 3.5 0.00 0.00 0.00 1009.9
20260508005305 0 71 0.9 3.5 0.00 0.00 0.00 1009.9
20260508004752 0 55 0.9 1.7 0.00 0.00 0.00 1010.1
20260508003221 0 25 0.0 1.7 0.00 0.00 0.00 1010.2
20260508002709 0 28 0.0 1.7 0.00 0.00 0.00 1010.2
20260508002159 0 10 0.0 1.7 0.00 0.00 0.00 1010.2
20260508001648 0 26 0.0 1.7 0.00 0.00 0.00 1010.1
20260508001137 0 22 0.9 3.5 0.00 0.00 0.00 1010.1
20260508000117 0 59 0.9 3.5 0.00 0.00 0.00 1009.9
20260507235609 0 50 0.9 3.5 0.00 0.00 0.00 1010.0
20260507235059 0 56 0.9 2.6 0.00 0.00 0.00 1009.9
20260507234549 0 75 0.9 3.5 0.00 0.00 0.00 1009.9
20260507234039 0 35 0.9 3.5 0.00 0.00 0.00 1009.9
20260507233529 0 61 0.0 2.6 0.00 0.00 0.00 1010.0
20260507233013 0 48 0.9 2.6 0.00 0.00 0.00 1010.2
20260507232503 0 46 0.9 2.6 0.00 0.00 0.00 1010.3
20260507231955 0 52 0.9 2.6 0.00 0.00 0.00 1010.2
20260507231445 0 41 0.9 3.5 0.00 0.00 0.00 1010.2
20260507230935 0 38 0.9 3.5 0.00 0.00 0.00 1010.3
20260507230431 0 38 1.7 3.5 0.00 0.00 0.00 1010.1
20260507225921 0 49 2.6 4.3 0.00 0.00 0.00 1010.0
20260507225642 0 56 2.6 4.3 0.00 0.00 0.00 1010.0
20260507225136 0 53 1.7 4.3 0.00 0.00 0.00 1010.1
20260507224357 0 45 2.6 4.3 0.00 0.00 0.00 1010.1
20260507223849 0 52 2.6 6.1 0.00 0.00 0.00 1010.1
20260507223334 0 48 3.5 7.0 0.00 0.00 0.00 1010.1
20260507222819 0 61 3.5 7.0 0.00 0.00 0.00 1010.0
20260507222318 0 29 3.5 7.0 0.00 0.00 0.00 1009.9
20260507221815 0 47 3.5 7.0 0.00 0.00 0.00 1010.0
20260507221309 0 45 3.5 7.8 0.00 0.00 0.00 1010.0
20260507220810 0 52 3.5 8.7 0.00 0.00 0.00 1009.9
20260507220532 0 10 3.5 7.0 0.00 0.00 0.00 1009.9
20260507215801 0 51 4.3 7.0 0.00 0.00 0.00 1010.0
20260507215258 0 53 3.5 7.0 0.00 0.00 0.00 1010.1
20260507214749 0 76 3.5 7.8 0.00 0.00 0.00 1010.1
20260507214516 0 10 3.5 8.7 0.00 0.00 0.00 1010.1
20260507213737 0 10 3.5 8.7 0.00 0.00 0.00 1010.1
20260507213505 0 10 4.3 9.6 0.00 0.00 0.00 1010.2
20260507212728 0 42 4.3 9.6 0.00 0.00 0.00 1010.3
20260507212223 0 53 4.3 7.8 0.00 0.00 0.00 1010.3
20260507211719 0 30 5.2 8.7 0.00 0.00 0.00 1010.4
20260507211446 0 60 6.1 9.6 0.00 0.00 0.00 1010.4
20260507210708 0 10 7.0 9.6 0.00 0.00 0.00 1010.4
20260507210203 0 10 7.0 9.6 0.00 0.00 0.00 1010.4
20260507205657 0 10 6.1 9.6 0.00 0.00 0.00 1010.5
20260507205152 0 10 7.0 9.6 0.00 0.00 0.00 1010.5
20260507204644 0 61 6.1 9.6 0.00 0.00 0.00 1010.6
20260507204139 0 55 6.1 9.6 0.00 0.00 0.00 1010.7
20260507203632 0 50 6.1 9.6 0.00 0.00 0.00 1010.8
20260507203124 0 61 5.2 8.7 0.00 0.00 0.00 1011.0
20260507202621 0 54 6.1 9.6 0.00 0.00 0.00 1011.1